Date,TemperatureHighF,TemperatureAvgF,TemperatureLowF,DewpointHighF,DewpointAvgF,DewpointLowF,HumidityHigh,HumidityAvg,HumidityLow,PressureMaxIn,PressureMinIn,WindSpeedMaxMPH,WindSpeedAvgMPH,GustSpeedMaxMPH,PrecipitationSumIn
2013-2-1,56.5,38.7,27.5,38.1,32.3,27.0,99,81,46,30.63,30.51,1,0,1,0.00
2013-2-2,48.9,35.0,23.9,34.8,30.0,23.7,99,84,58,30.65,30.49,0,0,0,0.00
2013-2-3,60.1,43.8,28.9,33.3,28.2,21.0,96,60,30,30.51,30.37,1,0,1,0.00
2013-2-4,57.4,43.2,34.3,34.2,29.9,26.4,77,61,36,30.40,30.19,0,0,0,0.00
2013-2-5,52.2,41.3,35.2,34.5,28.0,22.0,73,60,43,30.28,30.13,1,0,1,0.00
2013-2-6,50.4,40.0,33.3,27.3,25.5,22.1,75,58,38,30.33,30.13,1,0,1,0.00
2013-2-7,48.0,36.4,29.3,27.7,23.4,16.1,84,61,36,30.29,30.12,1,0,1,0.00
2013-2-8,45.9,32.7,19.9,28.6,21.6,17.5,99,68,36,30.39,30.29,0,0,0,0.00
2013-2-9,48.9,32.4,18.5,29.9,23.6,15.8,90,72,46,30.44,30.34,2,0,2,0.00
2013-2-10,51.3,35.6,23.4,33.3,24.3,20.3,99,68,36,30.51,30.42,1,0,1,0.00
2013-2-11,51.6,35.5,19.6,33.0,25.3,17.0,93,69,39,30.54,30.42,1,0,1,0.00
2013-2-12,52.5,39.4,29.5,35.8,30.5,27.2,96,73,48,30.62,30.53,2,0,2,0.00
2013-2-13,48.4,39.2,33.3,34.4,31.4,28.6,89,75,51,30.65,30.58,1,0,1,0.00
2013-2-14,62.8,40.6,26.2,38.9,33.1,25.8,99,78,41,30.72,30.64,1,0,1,0.00
2013-2-15,55.8,41.4,27.9,40.4,34.5,27.6,99,79,53,30.71,30.48,1,0,1,0.00
2013-2-16,34.9,33.4,31.1,33.2,31.0,29.0,97,91,84,30.49,30.40,1,0,1,0.00
2013-2-17,50.5,35.8,26.1,25.4,23.2,21.2,82,63,33,30.43,30.28,1,0,1,0.00
2013-2-18,41.2,33.0,23.5,28.9,24.6,21.0,93,73,52,30.28,30.08,1,0,1,0.00
2013-2-21,40.3,35.1,27.1,26.3,24.9,22.5,85,67,55,30.37,30.27,2,0,2,0.00
2013-2-22,50.9,38.6,29.1,35.3,28.9,24.1,99,69,50,30.37,30.07,3,0,3,0.00
2013-2-23,44.6,33.6,26.1,28.1,22.7,19.5,92,65,46,30.55,30.23,1,0,1,0.00
2013-2-24,52.2,34.8,21.7,28.0,22.5,17.1,89,64,33,30.58,30.30,1,0,1,0.00
2013-2-25,44.4,36.0,27.3,34.5,26.7,19.8,90,70,49,30.51,30.23,15,0,15,0.02
2013-2-26,52.2,37.3,22.6,23.6,17.2,6.6,82,49,18,30.55,30.43,1,0,1,0.00
2013-2-27,52.7,41.1,29.3,33.8,24.5,17.1,66,53,35,30.53,30.45,1,0,1,0.00
2013-2-28,56.7,47.9,40.3,42.0,37.6,29.3,83,68,57,30.65,30.44,3,0,3,0.00